Regional Weather Roundup
Issued by NWS

Home | Current Version | Previous Version | Graphics & Text | Print | Product List | Glossary On
Versions: 1 2 3 4 5 6 7 8 9 10 11 12 13 14 15 16 17 18 19 20 21 22 23 24 25 26 27 28 29 30 31 32 33 34 35 36 37 38 39 40 41 42 43 44 45 46 47 48 49 50
000
ASUS45 KCYS 031710
RWRWY

WYOMING REGIONAL WEATHER ROUNDUP
NATIONAL WEATHER SERVICE CHEYENNE WY
1100 AM MDT WED JUN 03 2015

NOTE:  "FAIR" INDICATES FEW OR NO CLOUDS BELOW 12,000 FEET
WITH NO SIGNIFICANT WEATHER AND/OR OBSTRUCTIONS TO VISIBILITY.

WYZ001-031800-
...YELLOWSTONE NATIONAL PARK...

CITY           SKY/WX    TMP DP  RH WIND       PRES   REMARKS
LK YELLOWSTONE   N/A     51  37  58 VRB5      30.13S
W YELLOWSTONE  NOT AVBL

$$
WYZ002>013-054>058-071-098>099-031800-
...NORTHERN WYOMING...

CITY           SKY/WX    TMP DP  RH WIND       PRES   REMARKS
JACKSON        SUNNY     59  41  51 SE6       30.06F
CODY           SUNNY     63  45  51 CALM      30.00F
GREYBULL       SUNNY     67  47  48 W6        29.96F
WORLAND        SUNNY     66  48  52 SW5       29.97F
SHERIDAN       PTSUNNY   63  55  75 N7        30.00F
BUFFALO        SUNNY     67  51  56 SE15G21   30.02R
GILLETTE       SUNNY     66  50  56 CALM      30.01S
HULETT         FAIR      64  52  63 NE8       30.03F
NEWCASTLE      FAIR      64  50  59 SE8       30.02F

$$
WYZ014>020-022>026-101>103-031800-
...CENTRAL WYOMING...

CITY           SKY/WX    TMP DP  RH WIND       PRES   REMARKS
BIG PINEY      SUNNY     62  36  37 VRB7      30.09F
PINEDALE       SUNNY     63  32  31 E7        30.09S
DUBOIS         FAIR      59  34  38 SE8       30.08F
LANDER         SUNNY     65  50  58 NE3       30.01F
RIVERTON       SUNNY     63  47  55 E8        30.03F
CASPER         MOSUNNY   65  51  60 N5        30.03F
DOUGLAS        SUNNY     66  52  60 SE15      30.03F

$$
WYZ021-027>030-104>119-031800-
...SOUTHERN WYOMING...

CITY           SKY/WX    TMP DP  RH WIND       PRES   REMARKS
EVANSTON       MOSUNNY   64  40  41 N5        30.04F
KEMMERER       SUNNY     64  34  32 E13G18    30.08F
FORT BRIDGER   SUNNY     64  41  42 E9        30.08F
ROCK SPRINGS   SUNNY     66  39  37 E7        30.05F
DIXON          FAIR      70  35  28 CALM      30.05F
RAWLINS        SUNNY     67  36  31 VRB3      30.06F
SARATOGA       FAIR      70  32  24 SE10G16   30.07S
LARAMIE        SUNNY     65  45  48 SE18      30.10F
CHEYENNE       CLOUDY    62  52  69 SW10      30.10F
TORRINGTON     SUNNY     68  52  56 CALM      30.02S
PINE BLUFFS    FAIR      66  54  63 S6        30.08R

$$


USA.gov is the U.S. government's official web portal to all federal, state and local government web resources and services.